Regional Weather Roundup
Issued by NWS San Diego, CA

Home | Current Version | Previous Version | Text Only | Print | Product List | Glossary On
Versions: 1 2 3 4 5 6 7 8 9 10 11 12 13 14 15 16 17 18 19 20 21 22 23 24 25 26 27 28 29 30 31 32 33 34 35 36 37 38 39 40 41 42 43 44 45 46 47 48 49 50
000
ASUS46 KSGX 281911
RWRSGX

SAN DIEGO HOURLY WEATHER ROUNDUP
NATIONAL WEATHER SERVICE SAN DIEGO CA
1200 PM PDT SAT MAR 28 2015

NOTE: "FAIR" INDICATES FEW OR NO CLOUDS BELOW 12,000 FEET WITH NO
SIGNIFICANT WEATHER AND/OR OBSTRUCTIONS TO VISIBILITY.

CAZ042-043-060-061-PZZ750-775-282000-

GREATER SAN DIEGO AREA

CITY           SKY/WX    TMP DP  RH WIND       PRES   REMARKS
LINDBERGH FLD  MOSUNNY   70  57  63 NW12      30.09R
POINT LOMA       N/A     67  60  77 W22         N/A
CHULA VISTA      N/A     74  61  63 W6        30.00R
IMPERIAL BEACH SUNNY     70  60  70 W15       30.08R
BROWN FIELD    SUNNY     78  53  41 W12       30.06S
MIRAMAR MCAS   SUNNY     79  54  41 NW9       30.07S
MONTGOMERY FLD SUNNY     79  54  41 SW8       30.07S

$$

NORTH SAN DIEGO COUNTY

CITY           SKY/WX    TMP DP  RH WIND       PRES   REMARKS
CAMP PENDLETON SUNNY     79  49  34 SW7       30.06F
OCEANSIDE AP   SUNNY     72  55  55 W9        30.06F
VISTA            N/A     76  58  53 SW6       30.05S
CARLSBAD       SUNNY     68  56  65 VRB6      30.07S
FALLBROOK        N/A     83  43  25 SW5       30.04F
SAN MARCOS       N/A     78  55  45 W3        30.04S
POWAY            N/A     86  48  26 SW7       30.06F

$$

EAST SAN DIEGO COUNTY

CITY           SKY/WX    TMP DP  RH WIND       PRES   REMARKS
RAMONA         SUNNY     85  30  13 NW12      30.09S
SANTEE LAKES     N/A     87  48  25 SW5       30.05F
LA MESA          N/A     81  50  33 NW6       29.99F
DESCANSO N       N/A     80  30  16 SW2       29.98S
MT. LAGUNA OBS   N/A     67  21  17 CALM      29.83S
CAMPO            N/A     83  22  10 SW13G18   30.10S

$$

ORANGE COUNTY AND THE LOS ANGELES BASIN

CITY           SKY/WX    TMP DP  RH WIND       PRES   REMARKS
JOHN WAYNE AP  MOSUNNY   71  56  58 S10       30.08S
LAKE FOREST FR   N/A     80  46  29 CALM      29.96F
SANTA ANA        N/A     78  59  52 SW2       30.03R
HUNTINGTON BCH   N/A     68  61  79 SW3       30.10S
LOS ALAMITOS   MOSUNNY   71  58  64 S8        30.08S
FULLERTON      SUNNY     78  54  43 S7        30.06F
LONG BEACH     SUNNY     70  57  63 SW7       30.08S
L.A. AP        MOSUNNY   66  59  78 W12       30.09R
L.A. DOWNTOWN  SUNNY     79  56  45 CALM      30.06S

$$

THE INLAND EMPIRE

CITY           SKY/WX    TMP DP  RH WIND       PRES   REMARKS
CORONA         SUNNY     83  42  23 W6        30.06F
CHINO          SUNNY     85  37  18 W5        30.07F
ONTARIO        SUNNY     83  34  17 SW6       30.07F
SAN BERNARDINO SUNNY     84  27  12 CALM      30.07F
RIVERSIDE AP   SUNNY     84  30  14 W6        30.06F
MARCH ARB      SUNNY     84  27  12 W5        30.08F
HORSETHIEF CYN   N/A     85  31  14 N3        30.02F
MENIFEE          N/A     85  31  14 W1        30.13F
HEMET EAST       N/A     81  26  13 SW3       30.04F
FRENCH VALLEY  FAIR      84  27  12 SW6       30.08F
TEMECULA         N/A     83  35  17 SW2       30.04F

$$

SAN BERNARDINO AND RIVERSIDE COUNTY MOUNTAINS

CITY           SKY/WX    TMP DP  RH WIND       PRES   REMARKS
BIG BEAR AP    SUNNY     66   3   8 SW7       30.33S
ANGELUS OAKS     N/A     69  32  25 W1        30.01S

$$

SOUTHERN DESERT INCLUDING THE COACHELLA VALLEY

CITY           SKY/WX    TMP DP  RH WIND       PRES   REMARKS
PALM SPRINGS   SUNNY     93  24   8 E5        30.01F
THOUSAND PALMS   N/A     94  33  12 SW2       29.98F
THERMAL        SUNNY     94  30  10 VRB3      29.95F
BLYTHE         SUNNY     87  34  15 E5        30.01F
IMPERIAL AP    SUNNY     92  30  11 N5        29.98F
EL CENTRO NAS  SUNNY     90  39  16 VRB3      29.98F
YUMA AZ        SUNNY     90  41  18 CALM      30.00F
MEXICALI       SUNNY     91  28  10 NW6       30.00F

$$

UPPER DESERT

CITY           SKY/WX    TMP DP  RH WIND       PRES   REMARKS
VICTORVILLE AP SUNNY     79  25  13 S3        30.13F
HESPERIA         N/A     79  32  18 SE3       30.15F
APPLE VALLEY     N/A     83  27  13 W1        30.13F
PALMDALE       SUNNY     82  21  10 W12       30.11F
LANCASTER      SUNNY     82  26  13 SW13G21   30.11F
EDWARDS AFB    SUNNY     82  20  10 SW10      30.09F
DAGGETT        SUNNY     84  32  15 NW14      30.07F
29 PALMS N     SUNNY     83  29  14 CALM      30.15F
NEEDLES        SUNNY     89  22   8 E6        30.03F

$$

REGIONAL REPORTS

CITY           SKY/WX    TMP DP  RH WIND       PRES   REMARKS
SANTA BARBARA  SUNNY     66  56  70 S7        30.08S
SANDBERG       SUNNY     76  26  15 S9        30.22F
MT. WILSON       N/A    N/A N/A N/A MISG        N/A
LAS VEGAS NV   SUNNY     81  28  14 VRB3      30.05F
PHOENIX AZ     SUNNY     86  25  11 N3        30.05F
TIJUANA        SUNNY     81  50  34 W12       30.08F
ENSENADA NW      N/A     66  32  28 W20       30.03S

$$

OFFSHORE ISLANDS

CITY           SKY/WX    TMP DP  RH WIND       PRES   REMARKS
CATALINA ARPT  SUNNY     77  37  23 SW8       30.12F
SAN NICOLAS IS SUNNY    N/A N/A N/A NW12      30.09R

$$

MARINE AND OFFSHORE BUOY REPORTS

STATION/POSITION SKY/WX   TEMP    WIND        PRES    SWELL
                          AIR SEA DIR/SP/G            HT/PER/DIR
                          (F)     (DEG/KT/KT) (MB)    (FT/S/D)
TANNER BANKS               60 61  310/ 14/ 17 1019.3F   7/310/13
S CLEMENTE BASIN           62 65  300/  8/ 12 1018.7F   7/210/17
SAN NICOLAS IS.               60                N/A     7/270/13
SO. S. ROSA ISLA           57 59  320/ 16/ 19 1018.3F   7/13
W. S. BARBARA CH           56 59  320/ 16/ 19 1018.4F   7/310/ 8
S. MONICA BASIN            61 64  150/  4/  6 1018.9F   3/210/17
S PEDRO CHANNEL               64                N/A     2/220/14
DANA POINT                    66                N/A     3/200/18
CMP PENDLETON NS              66                N/A     3/220/18
OCEANSIDE OFFSHR              67                N/A     3/200/18
TORREY PINES OTR              67                N/A     3/200/18
MISSION BAY BUOY              67                N/A     3/200/18
SAN DIEGO BAY                 69              1018.5F
POINT LOMA SOUTH              67                N/A     5/200/18

$$




USA.gov is the U.S. government's official web portal to all federal, state and local government web resources and services.